FW2316 Weather Reports


Display with metric or nautical units.
time (UTC)temp
F
wind
direction
speed
MPH
gust
MPH
rain 1hr
in
rain 24hr
in
rain mn
in
humidity
%
barometer
mb
20260904193546 66 219 0.0 2.0 0.00 0.08 0.00 70 1014.6
20260904193044 65 22 0.0 2.0 0.00 0.08 0.00 70 1014.5
20260904192543 65 54 0.0 2.0 0.00 0.08 0.00 73 1014.4
20260904192045 65 244 0.0 3.0 0.00 0.08 0.00 72 1014.5
20260904191544 65 233 0.0 3.0 0.00 0.08 0.00 71 1014.5
20260904191045 65 246 0.0 4.0 0.00 0.08 0.00 73 1014.5
20260904190546 65 217 0.0 3.0 0.00 0.08 0.00 73 1014.5
20260904190047 64 34 2.0 3.0 0.00 0.08 0.00 73 1014.5
20260904185038 64 259 3.0 11.0 0.00 0.08 0.00 74 1014.5
20260904184538 65 293 3.0 11.0 0.00 0.08 0.00 73 1014.5
20260904184037 64 285 3.0 8.0 0.00 0.08 0.00 72 1014.5
20260904183537 63 312 2.0 6.0 0.00 0.08 0.00 71 1014.5
20260904183048 62 281 2.0 5.0 0.00 0.08 0.00 75 1014.5
20260904182539 63 267 2.0 7.0 0.00 0.08 0.00 74 1014.6
20260904182035 65 301 3.0 8.0 0.00 0.08 0.00 69 1014.9
20260904181539 64 285 4.0 8.0 0.00 0.08 0.00 72 1014.5
20260904181033 63 270 4.0 8.0 0.00 0.08 0.00 74 1014.6
20260904180534 63 302 1.0 5.0 0.00 0.08 0.00 73 1014.6
20260904180032 63 319 3.0 6.0 0.00 0.08 0.00 72 1014.7
20260904175034 62 312 4.0 6.0 0.00 0.08 0.00 74 1014.7
20260904174532 62 340 2.0 5.0 0.00 0.08 0.00 75 1014.7
20260904174030 61 325 3.0 5.0 0.00 0.08 0.00 76 1014.6
20260904173527 61 336 3.0 5.0 0.00 0.08 0.00 76 1014.7
20260904173026 60 9 1.0 3.0 0.00 0.08 0.00 76 1014.7
20260904172527 60 9 0.0 3.0 0.00 0.08 0.00 78 1014.7
20260904172024 60 9 0.0 4.0 0.00 0.09 0.00 80 1014.6
20260904171522 59 9 1.0 4.0 0.00 0.09 0.00 80 1014.7
20260904171021 58 12 0.0 3.0 0.00 0.09 0.00 82 1014.6
20260904170520 57 12 0.0 4.0 0.00 0.09 0.00 84 1014.5
20260904170019 57 12 1.0 4.0 0.00 0.09 0.00 82 1014.7
20260904165019 57 11 1.0 5.0 0.00 0.09 0.00 84 1014.6
20260904164517 57 11 2.0 5.0 0.00 0.09 0.00 85 1014.6
20260904164019 56 42 1.0 4.0 0.00 0.09 0.00 86 1014.6
20260904163517 56 42 1.0 4.0 0.00 0.09 0.00 85 1014.6
20260904163016 56 44 2.0 5.0 0.00 0.09 0.00 86 1014.7
20260904162515 56 46 1.0 5.0 0.00 0.09 0.00 88 1014.6
20260904162014 56 120 1.0 3.0 0.00 0.09 0.00 89 1014.6
20260904161512 56 120 0.0 2.0 0.00 0.09 0.00 89 1014.6
20260904161016 56 120 0.0 3.0 0.00 0.09 0.00 89 1014.5
20260904160514 55 120 1.0 3.0 0.00 0.09 0.00 90 1014.6
20260904160008 54 120 0.0 0.0 0.00 0.09 0.00 89 1014.5
20260904155007 54 120 0.0 1.0 0.00 0.09 0.00 90 1014.4
20260904154506 54 120 0.0 1.0 0.00 0.09 0.00 91 1014.3
20260904154007 53 120 0.0 1.0 0.00 0.09 0.00 91 1014.3
20260904153503 53 120 0.0 1.0 0.00 0.09 0.00 92 1014.3
20260904153002 53 120 0.0 1.0 0.00 0.09 0.00 93 1014.2
20260904152600 53 120 0.0 1.0 0.00 0.09 0.00 93 1014.3
20260904152059 53 120 0.0 1.0 0.00 0.09 0.00 94 1014.2
20260904151558 53 120 0.0 0.0 0.00 0.09 0.00 94 1014.2
20260904151056 52 120 0.0 1.0 0.00 0.09 0.00 94 1014.1
20260904150556 52 120 0.0 2.0 0.00 0.09 0.00 94 1014.0
20260904150055 52 120 0.0 2.0 0.00 0.09 0.00 94 1014.1
20260904145054 52 120 0.0 2.0 0.00 0.09 0.00 93 1014.1
20260904144553 52 120 0.0 2.0 0.00 0.09 0.00 93 1014.0
20260904144051 52 120 0.0 0.0 0.00 0.09 0.00 93 1014.0
20260904143550 52 120 0.0 0.0 0.00 0.09 0.00 93 1013.9
20260904143049 51 120 0.0 0.0 0.00 0.09 0.00 93 1013.8
20260904142550 51 120 0.0 0.0 0.00 0.09 0.00 93 1013.7
20260904142049 51 120 0.0 1.0 0.00 0.11 0.00 92 1013.7
20260904141546 51 120 0.0 2.0 0.00 0.11 0.00 92 1013.6
20260904141046 51 120 0.0 2.0 0.00 0.11 0.00 92 1013.6
20260904140544 51 120 0.0 0.0 0.00 0.11 0.00 92 1013.5
20260904140043 51 120 0.0 0.0 0.00 0.11 0.00 92 1013.4
20260904135646 51 120 0.0 0.0 0.00 0.11 0.00 92 1013.5
20260904135042 51 120 0.0 0.0 0.00 0.11 0.00 92 1013.4
20260904134542 51 120 0.0 0.0 0.00 0.11 0.00 92 1013.4
20260904134041 51 120 0.0 1.0 0.00 0.11 0.00 92 1013.3
20260904133540 51 120 0.0 1.0 0.00 0.11 0.00 92 1013.2
20260904133046 51 120 0.0 6.0 0.00 0.11 0.00 92 1013.2
20260904132540 51 120 0.0 6.0 0.00 0.11 0.00 92 1013.1
20260904132039 51 119 0.0 4.0 0.00 0.12 0.00 92 1013.1
20260904131546 51 119 0.0 3.0 0.00 0.12 0.00 92 1013.1
20260904131038 51 119 0.0 4.0 0.00 0.12 0.00 92 1013.0
20260904130539 51 119 0.0 4.0 0.00 0.12 0.00 92 1013.0
20260904130038 51 119 0.0 1.0 0.00 0.12 0.00 92 1012.9
20260904125637 51 119 0.0 1.0 0.00 0.12 0.00 92 1012.9
20260904125037 51 119 0.0 1.0 0.00 0.12 0.00 92 1012.9
20260904124537 51 119 0.0 0.0 0.00 0.12 0.00 92 1012.9
20260904124037 51 119 0.0 0.0 0.00 0.12 0.00 91 1012.8
20260904123536 51 119 0.0 0.0 0.00 0.12 0.00 91 1012.8
20260904123037 51 119 0.0 0.0 0.00 0.12 0.00 91 1012.8
20260904122537 52 119 0.0 0.0 0.00 0.12 0.00 91 1012.7
20260904122033 52 119 0.0 1.0 0.00 0.12 0.00 91 1012.7
20260904121532 52 119 0.0 2.0 0.00 0.12 0.00 91 1012.7
20260904121032 52 119 0.0 2.0 0.00 0.12 0.00 92 1012.7
20260904120529 52 119 0.0 2.0 0.00 0.12 0.00 92 1012.6
20260904120027 51 119 0.0 3.0 0.00 0.12 0.00 92 1012.7
20260904115025 51 119 0.0 2.0 0.00 0.12 0.00 92 1012.5
20260904114524 52 119 0.0 4.0 0.00 0.12 0.00 92 1012.6
20260904114024 52 119 0.0 2.0 0.00 0.12 0.00 92 1012.5
20260904113522 51 119 0.0 2.0 0.00 0.12 0.00 92 1012.4
20260904113035 51 119 0.0 3.0 0.00 0.12 0.00 92 1012.5
20260904112522 51 119 0.0 3.0 0.00 0.12 0.00 93 1012.4
20260904112023 51 119 1.0 3.0 0.00 0.12 0.00 93 1012.3
20260904111526 51 119 0.0 4.0 0.00 0.12 0.00 93 1012.4
20260904111020 51 119 1.0 4.0 0.00 0.12 0.00 93 1012.4
20260904110519 51 118 0.0 3.0 0.00 0.12 0.00 94 1012.4
20260904110019 51 118 0.0 8.0 0.00 0.12 0.00 94 1012.4
20260904105019 51 34 0.0 4.0 0.00 0.12 0.00 94 1012.4
20260904104519 51 33 1.0 4.0 0.00 0.12 0.00 94 1012.4
20260904104021 51 23 0.0 2.0 0.00 0.12 0.00 94 1012.4
20260904103517 51 23 0.0 2.0 0.00 0.12 0.00 94 1012.4
20260904103017 51 22 0.0 3.0 0.00 0.12 0.00 94 1012.3
20260904102516 51 22 0.0 3.0 0.00 0.12 0.00 94 1012.3
20260904102016 51 18 0.0 2.0 0.00 0.12 0.00 95 1012.2
20260904101520 51 18 0.0 2.0 0.00 0.12 0.00 95 1012.3
20260904101022 51 14 0.0 0.0 0.00 0.12 0.00 95 1012.2
20260904100515 51 14 0.0 0.0 0.00 0.12 0.00 95 1012.2
20260904100018 51 14 0.0 1.0 0.00 0.12 0.00 95 1012.1
20260904095615 51 14 0.0 1.0 0.00 0.12 0.00 95 1012.2
20260904095114 51 14 0.0 1.0 0.00 0.12 0.00 95 1012.2
20260904094527 51 14 0.0 1.0 0.00 0.12 0.00 95 1012.1
20260904094012 51 14 0.0 0.0 0.00 0.12 0.00 95 1012.1
20260904093511 51 14 0.0 0.0 0.00 0.12 0.00 95 1012.1
20260904093011 51 14 0.0 2.0 0.00 0.12 0.00 95 1012.1
20260904092510 51 14 0.0 3.0 0.00 0.12 0.00 95 1012.1
20260904092009 51 14 2.0 3.0 0.00 0.12 0.12 95 1012.1
20260904091509 51 5 0.0 0.0 0.01 0.12 0.12 95 1012.2
20260904091011 51 5 0.0 0.0 0.01 0.12 0.12 95 1012.1
20260904090508 51 5 0.0 0.0 0.01 0.12 0.12 94 1012.1
20260904090009 52 5 0.0 0.0 0.02 0.12 0.12 94 1012.2
20260904085009 52 5 0.0 3.0 0.02 0.12 0.12 94 1012.0
20260904084509 52 5 0.0 2.0 0.03 0.12 0.12 94 1012.0
20260904084011 51 5 0.0 2.0 0.03 0.12 0.12 94 1012.1
20260904083509 51 5 0.0 2.0 0.03 0.12 0.12 95 1011.9
20260904083016 51 5 0.0 2.0 0.03 0.12 0.12 95 1011.9
20260904082509 51 5 0.0 2.0 0.03 0.12 0.12 95 1011.9
20260904082009 52 5 0.0 2.0 0.03 0.12 0.12 94 1012.0
20260904081508 52 5 0.0 2.0 0.03 0.12 0.12 94 1012.0
20260904081008 52 5 0.0 3.0 0.02 0.11 0.11 94 1012.2
20260904080508 52 5 1.0 3.0 0.02 0.11 0.11 94 1012.1
20260904080008 52 5 0.0 1.0 0.01 0.10 0.10 94 1012.3
20260904075008 52 5 0.0 2.0 0.01 0.10 0.10 94 1012.1
20260904074509 52 5 0.0 2.0 0.01 0.10 0.10 94 1012.1
20260904074008 52 5 0.0 0.0 0.00 0.09 0.09 94 1012.0
20260904073509 52 5 0.0 0.0 0.01 0.09 0.09 95 1012.1
20260904073007 52 5 0.0 0.0 0.01 0.09 0.09 94 1012.1
20260904072507 52 5 0.0 0.0 0.01 0.09 0.09 94 1012.2
20260904072011 52 5 0.0 0.0 0.02 0.09 0.09 94 1012.2
20260904071509 52 5 0.0 0.0 0.02 0.09 0.09 94 1012.3
20260904071007 52 5 0.0 0.0 0.02 0.09 0.09 94 1012.3
20260904070511 52 5 0.0 0.0 0.03 0.09 0.09 94 1012.3
20260904070007 52 5 0.0 0.0 0.03 0.09 0.09 94 1012.3
20260904065606 52 5 0.0 0.0 0.03 0.09 0.09 94 1012.3
20260904065006 52 5 0.0 0.0 0.04 0.09 0.09 94 1012.2
20260904064508 52 5 0.0 0.0 0.04 0.09 0.09 94 1012.3
20260904064007 52 5 0.0 0.0 0.04 0.09 0.09 94 1012.3
20260904063506 52 5 0.0 0.0 0.04 0.09 0.09 93 1012.3
20260904063006 52 5 0.0 0.0 0.03 0.08 0.08 93 1012.4
20260904062505 53 5 0.0 0.0 0.03 0.08 0.08 93 1012.4
20260904062005 53 5 0.0 0.0 0.02 0.07 0.07 93 1012.3
20260904061505 53 5 0.0 0.0 0.02 0.07 0.07 92 1012.3
20260904061006 53 5 0.0 0.0 0.02 0.07 0.07 92 1012.4
20260904060507 53 5 0.0 0.0 0.02 0.07 0.07 92 1012.3
20260904060009 53 5 0.0 3.0 0.01 0.06 0.06 91 1012.4
20260904055007 53 5 0.0 2.0 0.01 0.06 0.06 91 1012.4
20260904054508 53 5 1.0 2.0 0.00 0.05 0.05 90 1012.3
20260904054009 53 5 0.0 2.0 0.00 0.05 0.05 90 1012.3
20260904053508 54 5 0.0 2.0 0.00 0.05 0.05 89 1012.3
20260904053013 54 360 0.0 2.0 0.00 0.05 0.05 89 1012.2
20260904052507 54 360 0.0 2.0 0.00 0.05 0.05 89 1012.2
20260904052009 54 360 0.0 2.0 0.00 0.05 0.05 89 1012.2
20260904051511 54 360 0.0 3.0 0.00 0.05 0.05 90 1012.2
20260904051005 54 360 0.0 3.0 0.00 0.05 0.05 89 1012.2
20260904050504 54 360 0.0 0.0 0.00 0.05 0.05 89 1012.3
20260904050015 54 360 0.0 0.0 0.00 0.05 0.05 89 1012.3
20260904045003 53 360 0.0 0.0 0.00 0.05 0.05 89 1012.2
20260904044505 53 360 0.0 1.0 0.00 0.05 0.05 89 1012.2
20260904044001 53 360 0.0 1.0 0.00 0.05 0.05 89 1012.2
20260904043502 54 360 0.0 2.0 0.00 0.05 0.05 89 1012.2
20260904043001 54 360 0.0 2.0 0.00 0.05 0.05 89 1012.1
20260904042501 54 360 0.0 3.0 0.00 0.05 0.05 88 1012.2
20260904042103 54 351 0.0 3.0 0.00 0.05 0.05 89 1012.2
20260904041606 54 355 0.0 2.0 0.00 0.05 0.05 89 1012.2
20260904041100 54 355 0.0 3.0 0.00 0.05 0.05 90 1012.1
20260904040600 54 355 0.0 3.0 0.00 0.05 0.05 90 1012.1
20260904040100 54 355 0.0 2.0 0.00 0.05 0.05 91 1012.2
20260904035700 54 355 0.0 0.0 0.00 0.05 0.05 91 1012.2
20260904035100 54 355 0.0 2.0 0.01 0.05 0.05 91 1012.2
20260904034559 54 355 0.0 2.0 0.01 0.05 0.05 92 1012.2
20260904034104 54 355 0.0 1.0 0.01 0.05 0.05 92 1012.1
20260904033602 54 355 0.0 1.0 0.01 0.05 0.05 92 1012.1
20260904033059 55 355 0.0 1.0 0.01 0.05 0.05 92 1012.1
20260904032602 55 355 0.0 0.0 0.01 0.05 0.05 91 1012.0
20260904032102 55 355 0.0 1.0 0.01 0.05 0.05 91 1011.9
20260904031604 55 355 0.0 0.0 0.01 0.05 0.05 89 1011.9
20260904031057 55 355 0.0 0.0 0.01 0.05 0.05 88 1011.8
20260904030556 55 355 0.0 0.0 0.01 0.05 0.05 88 1011.8
20260904030056 55 355 0.0 0.0 0.01 0.05 0.05 87 1011.8
20260904025656 55 355 0.0 0.0 0.01 0.05 0.05 86 1011.8
20260904025056 56 355 0.0 1.0 0.01 0.05 0.05 85 1011.8
20260904024600 56 355 0.0 2.0 0.00 0.04 0.04 84 1011.8
20260904024100 56 355 0.0 2.0 0.00 0.04 0.04 84 1011.8
20260904023554 57 355 0.0 4.0 0.00 0.04 0.04 84 1011.8
20260904023054 57 355 0.0 4.0 0.00 0.04 0.04 83 1011.8
20260904022553 57 355 0.0 4.0 0.00 0.04 0.04 84 1011.7
20260904022054 57 351 0.0 2.0 0.00 0.07 0.04 84 1011.8
20260904021553 57 351 0.0 2.0 0.00 0.07 0.04 84 1011.6
20260904021053 57 351 0.0 3.0 0.00 0.07 0.04 84 1011.6
20260904020553 57 349 0.0 1.0 0.00 0.07 0.04 85 1011.8
20260904020059 57 349 0.0 1.0 0.00 0.07 0.04 86 1011.7
20260904015652 56 32 0.0 3.0 0.00 0.07 0.04 85 1011.7
20260904015051 56 32 0.0 3.0 0.00 0.07 0.04 85 1011.5
20260904014615 56 32 1.0 3.0 0.00 0.07 0.04 84 1011.5
20260904014051 56 68 1.0 3.0 0.00 0.07 0.04 85 1011.5
20260904013550 56 50 0.0 2.0 0.00 0.07 0.04 84 1011.4
20260904013105 56 31 0.0 2.0 0.00 0.07 0.04 84 1011.5
20260904012550 56 54 0.0 2.0 0.00 0.07 0.04 85 1011.5
20260904012051 56 53 0.0 2.0 0.00 0.16 0.04 85 1011.5
20260904011549 57 78 0.0 3.0 0.00 0.16 0.04 85 1011.5
20260904011049 57 57 0.0 3.0 0.00 0.16 0.04 84 1011.4
20260904010549 57 338 0.0 2.0 0.00 0.16 0.04 83 1011.4
20260904010055 57 202 0.0 7.0 0.00 0.16 0.04 82 1011.3
20260904005648 58 284 0.0 7.0 0.00 0.16 0.04 82 1011.3
20260904005049 58 284 1.0 7.0 0.00 0.16 0.04 82 1011.4
20260904004549 57 281 2.0 7.0 0.00 0.16 0.04 83 1011.3
20260904004047 58 275 3.0 11.0 0.00 0.16 0.04 84 1011.3
20260904003548 58 270 5.0 11.0 0.00 0.16 0.04 84 1011.2
20260904003052 59 257 5.0 11.0 0.00 0.16 0.04 86 1011.2
20260904002546 59 241 4.0 11.0 0.00 0.16 0.04 86 1011.2
20260904002045 59 182 3.0 7.0 0.00 0.17 0.04 86 1011.1
20260904001546 60 74 2.0 3.0 0.00 0.17 0.04 86 1011.0
20260904001045 60 69 0.0 2.0 0.00 0.17 0.04 85 1011.0
20260904000545 60 69 0.0 4.0 0.00 0.17 0.04 85 1010.9
20260904000048 60 69 1.0 5.0 0.00 0.17 0.04 83 1010.9
20260903235646 61 67 1.0 5.0 0.00 0.17 0.04 83 1010.9
20260903235046 61 67 1.0 5.0 0.00 0.17 0.04 83 1010.8
20260903234547 61 66 1.0 8.0 0.00 0.17 0.04 81 1010.7
20260903234045 62 66 3.0 8.0 0.00 0.17 0.04 78 1010.7
20260903233544 62 46 3.0 5.0 0.00 0.17 0.04 77 1010.8
20260903233045 62 44 2.0 7.0 0.00 0.17 0.04 76 1010.9
20260903232544 63 46 3.0 7.0 0.00 0.17 0.04 74 1010.8
20260903232044 63 35 3.0 9.0 0.00 0.23 0.04 73 1010.8
20260903231546 63 34 4.0 11.0 0.00 0.23 0.04 71 1010.9
20260903231042 64 42 6.0 11.0 0.00 0.23 0.04 69 1010.9
20260903230542 64 47 4.0 7.0 0.00 0.23 0.04 69 1011.0
20260903230042 64 54 4.0 10.0 0.00 0.23 0.04 68 1011.0
20260903225642 65 54 5.0 10.0 0.00 0.23 0.04 71 1011.0
20260903225040 65 38 4.0 10.0 0.00 0.23 0.04 71 1011.0
20260903224540 63 22 4.0 8.0 0.00 0.23 0.04 72 1011.0
20260903224040 64 53 4.0 7.0 0.00 0.23 0.04 72 1010.9
20260903223539 63 44 2.0 9.0 0.00 0.23 0.04 75 1010.9
20260903223041 63 44 4.0 9.0 0.00 0.23 0.04 74 1011.0
20260903222538 63 9 3.0 8.0 0.00 0.23 0.04 73 1011.0
20260903222038 63 360 3.0 8.0 0.00 0.28 0.04 77 1011.0
20260903221538 62 41 1.0 9.0 0.00 0.28 0.04 73 1010.9
20260903221037 63 36 4.0 9.0 0.00 0.28 0.04 73 1010.9
20260903220537 62 66 2.0 6.0 0.00 0.28 0.04 75 1011.0
20260903220036 62 61 3.0 5.0 0.00 0.28 0.04 77 1010.9
20260903215636 61 61 2.0 8.0 0.00 0.28 0.04 77 1011.0
20260903215036 61 61 3.0 8.0 0.00 0.28 0.04 77 1011.0
20260903214541 62 64 2.0 5.0 0.00 0.28 0.04 77 1011.0
20260903214037 61 63 2.0 5.0 0.00 0.28 0.04 79 1010.9
20260903213537 61 63 2.0 5.0 0.00 0.28 0.04 78 1010.9
20260903213043 61 60 3.0 6.0 0.00 0.28 0.04 76 1011.1
20260903212536 61 57 3.0 7.0 0.00 0.28 0.04 76 1011.0
20260903212036 61 55 4.0 7.0 0.00 0.31 0.04 77 1011.0
20260903211546 61 81 3.0 8.0 0.00 0.31 0.04 74 1011.0
20260903211035 61 65 2.0 6.0 0.00 0.31 0.04 75 1011.0
20260903210536 61 66 3.0 6.0 0.00 0.31 0.04 77 1011.0
20260903210036 62 329 1.0 5.0 0.00 0.31 0.04 78 1011.0
20260903205635 62 269 3.0 7.0 0.00 0.31 0.04 77 1011.0
20260903205035 62 236 2.0 7.0 0.00 0.31 0.04 73 1011.1
20260903204534 62 238 2.0 5.0 0.00 0.31 0.04 71 1010.9
20260903204036 62 238 3.0 5.0 0.00 0.31 0.04 70 1010.8
20260903203533 62 232 1.0 7.0 0.00 0.31 0.04 74 1010.8
20260903203033 62 234 3.0 7.0 0.00 0.31 0.04 73 1010.8
20260903202532 62 294 1.0 4.0 0.00 0.31 0.04 70 1010.7
20260903202032 63 294 2.0 8.0 0.00 0.31 0.04 70 1010.8
20260903201534 64 294 3.0 8.0 0.00 0.31 0.04 70 1010.7
20260903201031 64 246 2.0 5.0 0.00 0.31 0.04 70 1010.7
20260903200531 65 250 1.0 5.0 0.00 0.31 0.04 68 1010.8
20260903200030 64 223 1.0 3.0 0.00 0.31 0.04 70 1010.7
20260903195629 62 220 2.0 4.0 0.00 0.31 0.04 71 1010.7
20260903195033 62 220 1.0 4.0 0.00 0.31 0.04 70 1010.7
20260903194531 62 221 2.0 6.0 0.00 0.31 0.04 71 1010.8
20260903194030 62 205 0.0 6.0 0.00 0.31 0.04 71 1010.8